Time,TemperatureF,DewpointF,PressureIn,WindDirection,WindDirectionDegrees,WindSpeedMPH,WindSpeedGustMPH,Humidity,HourlyPrecipIn,Conditions,Clouds,dailyrainin,SolarRadiationWatts/m^2,SoftwareType,DateUTC
2013-03-05 00:00:00,45.0,41.4,30.00,SW,231,0.0,11.0,87,0.00,,,0.00,0.0,meteohub,2013-03-05 08:00:00,
2013-03-05 00:06:00,45.0,41.4,30.00,WNW,289,0.0,7.0,87,0.00,,,0.00,0.0,meteohub,2013-03-05 08:06:00,
2013-03-05 00:11:00,45.0,41.0,30.00,SW,219,3.0,7.0,86,0.00,,,0.00,0.0,meteohub,2013-03-05 08:11:00,
2013-03-05 00:16:00,44.8,40.8,30.00,SW,233,3.0,7.0,86,0.00,,,0.00,0.0,meteohub,2013-03-05 08:16:00,
2013-03-05 00:21:00,44.6,41.0,29.99,WSW,242,2.0,6.0,87,0.00,,,0.00,0.0,meteohub,2013-03-05 08:21:00,
2013-03-05 00:26:00,44.4,40.8,29.99,West,259,2.0,6.0,87,0.00,,,0.00,0.0,meteohub,2013-03-05 08:26:00,
2013-03-05 00:31:00,44.4,40.8,29.99,SW,227,1.0,6.0,87,0.00,,,0.00,0.0,meteohub,2013-03-05 08:31:00,
2013-03-05 00:36:00,44.2,40.6,29.99,SW,229,2.0,5.0,87,0.00,,,0.00,0.0,meteohub,2013-03-05 08:36:00,
2013-03-05 00:41:00,44.2,41.0,29.99,SW,235,0.0,5.0,88,0.00,,,0.00,0.0,meteohub,2013-03-05 08:41:00,
2013-03-05 00:46:00,44.2,41.0,29.99,SW,235,0.0,4.0,88,0.00,,,0.00,0.0,meteohub,2013-03-05 08:46:00,
2013-03-05 00:51:00,44.2,41.0,29.99,SW,235,0.0,2.0,88,0.00,,,0.00,0.0,meteohub,2013-03-05 08:51:00,
2013-03-05 00:56:00,44.1,40.8,29.99,WSW,240,0.0,2.0,88,0.00,,,0.00,0.0,meteohub,2013-03-05 08:56:00,
2013-03-05 01:01:00,44.1,41.0,29.99,WNW,282,1.0,1.0,89,0.00,,,0.00,0.0,meteohub,2013-03-05 09:01:00,
2013-03-05 01:06:00,44.2,41.2,29.99,WNW,284,1.0,3.0,89,0.00,,,0.00,0.0,meteohub,2013-03-05 09:06:00,
2013-03-05 01:11:00,44.1,40.8,29.99,SW,232,2.0,3.0,88,0.00,,,0.00,0.0,meteohub,2013-03-05 09:11:00,
2013-03-05 01:16:00,44.1,40.8,30.00,WSW,250,1.0,3.0,88,0.00,,,0.00,0.0,meteohub,2013-03-05 09:16:00,
2013-03-05 01:21:00,44.1,41.0,30.00,SW,236,3.0,5.0,89,0.00,,,0.00,0.0,meteohub,2013-03-05 09:21:00,
2013-03-05 01:26:00,44.1,41.0,30.00,WSW,243,1.0,9.0,89,0.00,,,0.00,0.0,meteohub,2013-03-05 09:26:00,
2013-03-05 01:31:00,44.2,41.0,30.00,WSW,245,0.0,9.0,88,0.00,,,0.00,0.0,meteohub,2013-03-05 09:31:00,
2013-03-05 01:36:00,44.2,41.0,30.00,WSW,253,3.0,9.0,88,0.00,,,0.00,0.0,meteohub,2013-03-05 09:36:00,
2013-03-05 01:41:00,44.4,41.2,30.00,West,279,0.0,7.0,88,0.00,,,0.00,0.0,meteohub,2013-03-05 09:41:00,
2013-03-05 01:46:00,44.6,41.2,30.00,SW,227,3.0,7.0,88,0.00,,,0.00,0.0,meteohub,2013-03-05 09:46:00,
2013-03-05 01:51:00,44.8,41.2,30.00,West,270,1.0,7.0,87,0.00,,,0.00,0.0,meteohub,2013-03-05 09:51:00,
2013-03-05 01:56:00,44.8,41.2,30.00,SW,229,3.0,7.0,87,0.00,,,0.00,0.0,meteohub,2013-03-05 09:56:00,
2013-03-05 02:01:00,45.0,41.4,30.00,WSW,237,4.0,7.0,87,0.00,,,0.00,0.0,meteohub,2013-03-05 10:01:00,
2013-03-05 02:06:00,45.0,41.0,30.00,SW,236,4.0,7.0,86,0.00,,,0.00,0.0,meteohub,2013-03-05 10:06:00,
2013-03-05 02:11:00,45.0,41.0,30.00,WNW,293,2.0,7.0,86,0.00,,,0.00,0.0,meteohub,2013-03-05 10:11:00,
2013-03-05 02:16:00,45.1,41.2,30.00,South,190,1.0,8.0,86,0.00,,,0.00,0.0,meteohub,2013-03-05 10:16:00,
2013-03-05 02:21:00,45.1,41.2,30.00,SW,236,1.0,8.0,86,0.00,,,0.00,0.0,meteohub,2013-03-05 10:21:00,
2013-03-05 02:26:00,45.1,40.8,30.00,West,265,2.0,6.0,85,0.00,,,0.00,0.0,meteohub,2013-03-05 10:26:00,
2013-03-05 02:31:00,45.0,40.6,30.00,SW,232,4.0,7.0,85,0.00,,,0.00,0.0,meteohub,2013-03-05 10:31:00,
2013-03-05 02:36:00,45.0,40.6,30.00,SW,233,1.0,10.0,85,0.00,,,0.00,0.0,meteohub,2013-03-05 10:36:00,
2013-03-05 02:41:00,45.0,40.6,30.00,West,263,5.0,10.0,85,0.00,,,0.00,0.0,meteohub,2013-03-05 10:41:00,
2013-03-05 02:46:00,45.0,40.6,29.99,NW,312,0.0,11.0,85,0.00,,,0.00,0.0,meteohub,2013-03-05 10:46:00,
2013-03-05 02:51:00,45.0,40.6,29.99,SW,228,4.0,11.0,85,0.00,,,0.00,0.0,meteohub,2013-03-05 10:51:00,
2013-03-05 02:56:00,45.0,40.6,29.99,SW,232,4.0,11.0,85,0.00,,,0.00,0.0,meteohub,2013-03-05 10:56:00,
2013-03-05 03:01:00,45.0,40.6,29.99,SW,223,2.0,9.0,85,0.00,,,0.00,0.0,meteohub,2013-03-05 11:01:00,
2013-03-05 03:06:00,45.0,40.6,29.99,SW,219,3.0,7.0,85,0.00,,,0.00,0.0,meteohub,2013-03-05 11:06:00,
2013-03-05 03:11:00,44.8,40.5,29.99,West,273,2.0,7.0,85,0.00,,,0.00,0.0,meteohub,2013-03-05 11:11:00,
2013-03-05 03:16:00,44.8,40.5,29.99,WSW,250,2.0,7.0,85,0.00,,,0.00,0.0,meteohub,2013-03-05 11:16:00,
2013-03-05 03:21:00,44.8,40.5,29.99,WSW,250,2.0,7.0,85,0.00,,,0.00,0.0,meteohub,2013-03-05 11:21:00,
2013-03-05 03:26:00,44.6,40.5,29.99,WSW,252,3.0,6.0,85,0.00,,,0.00,0.0,meteohub,2013-03-05 11:26:00,
2013-03-05 03:31:00,44.4,40.5,29.99,WSW,246,2.0,5.0,86,0.00,,,0.00,0.0,meteohub,2013-03-05 11:31:00,
2013-03-05 03:36:00,44.4,40.5,29.98,SW,227,1.0,6.0,86,0.00,,,0.00,0.0,meteohub,2013-03-05 11:36:00,
2013-03-05 03:41:00,44.4,40.5,29.98,WSW,246,4.0,6.0,86,0.00,,,0.00,0.0,meteohub,2013-03-05 11:41:00,
2013-03-05 03:46:00,44.4,40.5,29.99,SW,223,5.0,6.0,86,0.00,,,0.00,0.0,meteohub,2013-03-05 11:46:00,
2013-03-05 03:51:00,44.2,40.3,29.98,SW,225,2.0,7.0,86,0.00,,,0.00,0.0,meteohub,2013-03-05 11:51:00,
2013-03-05 03:56:00,44.4,40.5,29.99,WSW,242,0.0,7.0,86,0.00,,,0.00,0.0,meteohub,2013-03-05 11:56:00,
2013-03-05 04:01:00,44.2,40.3,29.99,West,261,1.0,5.0,86,0.00,,,0.00,0.0,meteohub,2013-03-05 12:01:00,
2013-03-05 04:06:00,44.2,40.3,29.99,WSW,248,3.0,5.0,86,0.00,,,0.00,0.0,meteohub,2013-03-05 12:06:00,
2013-03-05 04:11:00,44.2,40.3,29.99,SW,233,1.0,6.0,86,0.00,,,0.00,0.0,meteohub,2013-03-05 12:11:00,
2013-03-05 04:16:00,44.2,40.3,29.99,WSW,238,5.0,6.0,86,0.00,,,0.00,0.0,meteohub,2013-03-05 12:16:00,
2013-03-05 04:21:00,44.4,40.5,29.99,WSW,245,4.0,6.0,86,0.00,,,0.00,0.0,meteohub,2013-03-05 12:21:00,
2013-03-05 04:27:00,44.2,40.3,30.00,WSW,238,2.0,7.0,86,0.00,,,0.00,0.0,meteohub,2013-03-05 12:27:00,
2013-03-05 04:32:00,44.2,40.6,30.00,SW,227,5.0,7.0,87,0.00,,,0.00,0.0,meteohub,2013-03-05 12:32:00,
2013-03-05 04:37:00,44.2,40.6,30.00,WSW,253,4.0,7.0,87,0.00,,,0.00,0.0,meteohub,2013-03-05 12:37:00,
2013-03-05 04:42:00,44.4,40.5,30.00,SW,217,3.0,10.0,86,0.00,,,0.00,0.0,meteohub,2013-03-05 12:42:00,
2013-03-05 04:47:00,44.4,40.5,29.99,WSW,237,2.0,10.0,86,0.00,,,0.00,0.0,meteohub,2013-03-05 12:47:00,
2013-03-05 04:52:00,44.4,40.5,29.99,SW,236,3.0,8.0,86,0.00,,,0.00,0.0,meteohub,2013-03-05 12:52:00,
2013-03-05 04:57:00,44.4,40.5,29.99,WSW,256,2.0,8.0,86,0.00,,,0.00,0.0,meteohub,2013-03-05 12:57:00,
2013-03-05 05:02:00,44.4,40.5,29.99,South,178,1.0,7.0,86,0.00,,,0.00,0.0,meteohub,2013-03-05 13:02:00,
2013-03-05 05:07:00,44.4,40.5,29.99,SW,226,0.0,7.0,86,0.00,,,0.00,0.0,meteohub,2013-03-05 13:07:00,
2013-03-05 05:12:00,44.6,40.6,29.99,WSW,252,1.0,7.0,86,0.00,,,0.00,0.0,meteohub,2013-03-05 13:12:00,
2013-03-05 05:17:00,44.6,40.6,29.99,SW,225,0.0,7.0,86,0.00,,,0.00,0.0,meteohub,2013-03-05 13:17:00,
2013-03-05 05:22:00,44.6,40.6,29.99,WSW,246,0.0,5.0,86,0.00,,,0.00,0.0,meteohub,2013-03-05 13:22:00,
2013-03-05 05:27:00,44.6,40.6,29.99,WSW,247,0.0,5.0,86,0.00,,,0.00,0.0,meteohub,2013-03-05 13:27:00,
2013-03-05 05:32:00,44.6,40.6,29.99,SW,215,0.0,5.0,86,0.00,,,0.00,0.0,meteohub,2013-03-05 13:32:00,
2013-03-05 05:37:00,44.4,40.5,29.99,South,181,1.0,3.0,86,0.00,,,0.00,0.0,meteohub,2013-03-05 13:37:00,
2013-03-05 05:42:00,44.2,40.3,29.99,SSE,163,1.0,2.0,86,0.00,,,0.00,0.0,meteohub,2013-03-05 13:42:00,
2013-03-05 05:47:00,44.2,40.6,29.99,South,171,2.0,4.0,87,0.00,,,0.00,0.0,meteohub,2013-03-05 13:47:00,
2013-03-05 05:52:00,44.2,40.6,29.99,South,181,1.0,4.0,87,0.00,,,0.00,0.0,meteohub,2013-03-05 13:52:00,
2013-03-05 05:57:00,44.2,40.6,29.99,South,184,1.0,4.0,87,0.00,,,0.00,0.0,meteohub,2013-03-05 13:57:00,
2013-03-05 06:02:00,44.2,40.3,29.99,SSW,196,2.0,3.0,86,0.00,,,0.00,0.0,meteohub,2013-03-05 14:02:00,
2013-03-05 06:07:00,44.1,40.1,29.99,SSW,201,2.0,3.0,86,0.00,,,0.00,0.0,meteohub,2013-03-05 14:07:00,
2013-03-05 06:12:00,44.1,40.1,29.99,SSW,194,2.0,4.0,86,0.00,,,0.00,0.0,meteohub,2013-03-05 14:12:00,
2013-03-05 06:16:00,43.9,40.3,29.99,SW,217,2.0,4.0,87,0.00,,,0.00,0.0,meteohub,2013-03-05 14:16:00,
2013-03-05 06:22:00,43.5,39.9,29.99,SSW,211,3.0,3.0,87,0.00,,,0.00,0.0,meteohub,2013-03-05 14:22:00,
2013-03-05 06:27:00,43.5,39.9,29.99,SW,220,2.0,4.0,87,0.00,,,0.00,0.0,meteohub,2013-03-05 14:27:00,
2013-03-05 06:32:00,43.3,39.7,29.99,SW,236,3.0,4.0,87,0.00,,,0.00,5.0,meteohub,2013-03-05 14:32:00,
2013-03-05 06:36:00,43.3,39.7,30.00,SW,236,1.0,5.0,87,0.00,,,0.00,7.0,meteohub,2013-03-05 14:36:00,
2013-03-05 06:41:00,43.5,39.9,30.00,SW,225,0.0,5.0,87,0.00,,,0.00,11.0,meteohub,2013-03-05 14:41:00,
2013-03-05 06:47:00,43.5,39.6,30.00,SW,225,2.0,5.0,86,0.00,,,0.00,16.0,meteohub,2013-03-05 14:47:00,
2013-03-05 06:52:00,43.9,39.9,30.00,WSW,238,0.0,3.0,86,0.00,,,0.00,21.0,meteohub,2013-03-05 14:52:00,
2013-03-05 06:57:00,43.9,39.7,30.00,SSW,202,2.0,3.0,85,0.00,,,0.00,28.0,meteohub,2013-03-05 14:57:00,
2013-03-05 07:02:00,43.9,39.9,30.00,SSW,202,1.0,5.0,86,0.00,,,0.00,32.0,meteohub,2013-03-05 15:02:00,
2013-03-05 07:07:00,44.2,40.3,29.99,SSW,206,0.0,5.0,86,0.00,,,0.00,44.0,meteohub,2013-03-05 15:07:00,
2013-03-05 07:12:00,44.4,40.3,29.99,SW,225,0.0,3.0,85,0.00,,,0.00,62.0,meteohub,2013-03-05 15:12:00,
2013-03-05 07:17:00,44.6,40.5,29.99,West,268,1.0,3.0,85,0.00,,,0.00,76.0,meteohub,2013-03-05 15:17:00,
2013-03-05 07:22:00,44.6,40.5,29.99,SSW,213,0.0,3.0,85,0.00,,,0.00,91.0,meteohub,2013-03-05 15:22:00,
2013-03-05 07:27:00,44.8,40.3,29.99,South,178,0.0,3.0,84,0.00,,,0.00,102.0,meteohub,2013-03-05 15:27:00,
2013-03-05 07:32:00,45.0,40.1,29.99,WSW,254,0.0,3.0,83,0.00,,,0.00,120.0,meteohub,2013-03-05 15:32:00,
2013-03-05 07:37:00,45.5,40.3,29.99,WSW,250,2.0,3.0,82,0.00,,,0.00,111.0,meteohub,2013-03-05 15:37:00,
2013-03-05 07:42:00,45.9,40.3,29.99,West,264,0.0,5.0,81,0.00,,,0.00,130.0,meteohub,2013-03-05 15:42:00,
2013-03-05 07:47:00,46.0,40.3,29.99,WSW,247,0.0,5.0,80,0.00,,,0.00,139.0,meteohub,2013-03-05 15:47:00,
2013-03-05 07:52:00,46.6,40.8,29.99,West,263,1.0,5.0,80,0.00,,,0.00,206.0,meteohub,2013-03-05 15:52:00,
2013-03-05 07:57:00,46.9,41.2,29.98,SSW,213,2.0,5.0,80,0.00,,,0.00,211.0,meteohub,2013-03-05 15:57:00,
2013-03-05 08:02:00,46.9,40.1,29.98,South,170,1.0,4.0,77,0.00,,,0.00,248.0,meteohub,2013-03-05 16:02:00,
2013-03-05 08:07:00,47.5,40.6,29.98,South,170,2.0,3.0,77,0.00,,,0.00,236.0,meteohub,2013-03-05 16:07:00,
2013-03-05 08:12:00,47.3,39.7,29.98,SSW,199,1.0,3.0,75,0.00,,,0.00,229.0,meteohub,2013-03-05 16:12:00,
2013-03-05 08:17:00,47.7,40.5,29.99,South,170,1.0,4.0,76,0.00,,,0.00,290.0,meteohub,2013-03-05 16:17:00,
2013-03-05 08:22:00,47.8,39.6,29.99,ESE,109,1.0,4.0,73,0.00,,,0.00,301.0,meteohub,2013-03-05 16:22:00,
2013-03-05 08:27:00,47.8,40.6,29.98,SSW,199,0.0,4.0,76,0.00,,,0.00,285.0,meteohub,2013-03-05 16:27:00,
2013-03-05 08:32:00,47.7,39.7,29.98,SSW,213,3.0,4.0,74,0.00,,,0.00,278.0,meteohub,2013-03-05 16:32:00,
2013-03-05 08:37:00,47.8,40.3,29.98,SSE,168,2.0,5.0,75,0.00,,,0.00,330.0,meteohub,2013-03-05 16:37:00,
2013-03-05 08:42:00,48.7,40.8,29.98,SSE,150,2.0,5.0,74,0.00,,,0.00,376.0,meteohub,2013-03-05 16:42:00,
2013-03-05 08:47:00,49.5,40.1,29.98,SSE,167,3.0,5.0,70,0.00,,,0.00,408.0,meteohub,2013-03-05 16:47:00,
2013-03-05 08:52:00,48.7,40.8,29.98,WSW,258,0.0,4.0,74,0.00,,,0.00,338.0,meteohub,2013-03-05 16:52:00,
2013-03-05 08:57:00,49.5,40.5,29.98,WSW,244,3.0,5.0,71,0.00,,,0.00,436.0,meteohub,2013-03-05 16:57:00,
2013-03-05 09:02:00,49.5,40.8,29.98,WNW,290,3.0,6.0,72,0.00,,,0.00,459.0,meteohub,2013-03-05 17:02:00,
2013-03-05 09:07:00,49.6,41.0,29.98,SE,143,2.0,6.0,72,0.00,,,0.00,480.0,meteohub,2013-03-05 17:07:00,
2013-03-05 09:12:00,50.0,40.6,29.98,West,259,2.0,9.0,70,0.00,,,0.00,499.0,meteohub,2013-03-05 17:12:00,
2013-03-05 09:17:00,50.5,40.8,29.98,WNW,298,3.0,9.0,69,0.00,,,0.00,490.0,meteohub,2013-03-05 17:17:00,
2013-03-05 09:22:00,50.7,41.4,29.98,WNW,294,7.0,9.0,70,0.00,,,0.00,497.0,meteohub,2013-03-05 17:22:00,
2013-03-05 09:27:00,50.5,41.2,29.97,WNW,285,2.0,7.0,70,0.00,,,0.00,494.0,meteohub,2013-03-05 17:27:00,
2013-03-05 09:32:00,50.4,41.4,29.97,WNW,284,1.0,7.0,71,0.00,,,0.00,527.0,meteohub,2013-03-05 17:32:00,
2013-03-05 09:37:00,50.2,40.8,29.97,WNW,297,0.0,10.0,70,0.00,,,0.00,524.0,meteohub,2013-03-05 17:37:00,
2013-03-05 09:42:00,50.5,41.2,29.97,WSW,257,1.0,10.0,70,0.00,,,0.00,540.0,meteohub,2013-03-05 17:42:00,
2013-03-05 09:47:00,50.4,41.4,29.97,NW,304,1.0,9.0,71,0.00,,,0.00,517.0,meteohub,2013-03-05 17:47:00,
2013-03-05 09:52:00,51.1,41.2,29.97,WSW,243,4.0,10.0,69,0.00,,,0.00,418.0,meteohub,2013-03-05 17:52:00,
2013-03-05 09:57:00,50.7,41.4,29.97,SSW,212,2.0,10.0,70,0.00,,,0.00,552.0,meteohub,2013-03-05 17:57:00,
2013-03-05 10:02:00,51.4,41.5,29.97,WSW,242,2.0,9.0,69,0.00,,,0.00,557.0,meteohub,2013-03-05 18:02:00,
2013-03-05 10:07:00,51.6,41.0,29.97,SW,215,6.0,9.0,67,0.00,,,0.00,578.0,meteohub,2013-03-05 18:07:00,
2013-03-05 10:12:00,52.0,41.4,29.97,SW,235,6.0,9.0,67,0.00,,,0.00,577.0,meteohub,2013-03-05 18:12:00,
2013-03-05 10:17:00,52.3,41.7,29.97,SW,218,14.0,14.0,67,0.00,,,0.00,661.0,meteohub,2013-03-05 18:17:00,
2013-03-05 10:22:00,52.9,42.3,29.97,WSW,244,7.0,14.0,67,0.00,,,0.00,649.0,meteohub,2013-03-05 18:22:00,
2013-03-05 10:27:00,52.2,42.3,29.97,WSW,238,12.0,14.0,69,0.00,,,0.00,638.0,meteohub,2013-03-05 18:27:00,
2013-03-05 10:32:00,52.3,42.1,29.97,SW,229,4.0,17.0,68,0.00,,,0.00,638.0,meteohub,2013-03-05 18:32:00,
2013-03-05 10:37:00,52.2,42.3,29.97,SW,227,13.0,18.0,69,0.00,,,0.00,707.0,meteohub,2013-03-05 18:37:00,
2013-03-05 10:42:00,52.3,42.4,29.97,SW,223,9.0,18.0,69,0.00,,,0.00,552.0,meteohub,2013-03-05 18:42:00,
2013-03-05 10:47:00,51.4,41.9,29.97,SW,232,10.0,21.0,70,0.00,,,0.00,680.0,meteohub,2013-03-05 18:47:00,
2013-03-05 10:52:00,51.4,41.9,29.97,SW,215,16.0,21.0,70,0.00,,,0.00,684.0,meteohub,2013-03-05 18:52:00,
2013-03-05 10:57:00,51.4,42.4,29.97,SW,223,13.0,22.0,71,0.00,,,0.00,679.0,meteohub,2013-03-05 18:57:00,
2013-03-05 11:02:00,51.3,41.9,29.97,WSW,243,10.0,26.0,70,0.00,,,0.00,320.0,meteohub,2013-03-05 19:02:00,
2013-03-05 11:07:00,50.7,42.1,29.97,West,260,14.0,27.0,72,0.00,,,0.00,369.0,meteohub,2013-03-05 19:07:00,
2013-03-05 11:12:00,50.2,41.5,29.97,West,271,10.0,27.0,72,0.00,,,0.00,323.0,meteohub,2013-03-05 19:12:00,
2013-03-05 11:17:00,49.6,41.7,29.97,SW,225,10.0,27.0,74,0.00,,,0.00,483.0,meteohub,2013-03-05 19:17:00,
2013-03-05 11:22:00,49.8,41.9,29.97,WSW,238,11.0,26.0,74,0.00,,,0.00,329.0,meteohub,2013-03-05 19:22:00,
2013-03-05 11:27:00,49.8,41.9,29.97,South,190,9.0,26.0,74,0.00,,,0.00,429.0,meteohub,2013-03-05 19:27:00,
2013-03-05 11:32:00,50.5,42.3,29.97,WSW,238,17.0,24.0,73,0.00,,,0.00,490.0,meteohub,2013-03-05 19:32:00,
2013-03-05 11:37:00,50.2,41.5,29.97,SW,221,15.0,24.0,72,0.00,,,0.00,378.0,meteohub,2013-03-05 19:37:00,
2013-03-05 11:42:00,50.5,42.3,29.96,South,171,15.0,26.0,73,0.00,,,0.00,907.0,meteohub,2013-03-05 19:42:00,
2013-03-05 11:47:00,51.4,42.4,29.96,SW,230,17.0,28.0,71,0.00,,,0.00,942.0,meteohub,2013-03-05 19:47:00,
2013-03-05 11:52:00,51.6,42.4,29.96,SW,223,22.0,28.0,71,0.00,,,0.00,842.0,meteohub,2013-03-05 19:52:00,
2013-03-05 11:57:00,51.6,42.1,29.96,SW,219,12.0,28.0,70,0.00,,,0.00,823.0,meteohub,2013-03-05 19:57:00,
2013-03-05 12:02:00,51.8,42.3,29.96,SW,226,15.0,28.0,70,0.00,,,0.00,844.0,meteohub,2013-03-05 20:02:00,
2013-03-05 12:07:00,52.0,42.1,29.96,WSW,238,19.0,28.0,69,0.00,,,0.00,909.0,meteohub,2013-03-05 20:07:00,
2013-03-05 12:12:00,51.3,41.9,29.96,West,274,14.0,29.0,70,0.00,,,0.00,366.0,meteohub,2013-03-05 20:12:00,
2013-03-05 12:17:00,50.7,41.7,29.96,SW,221,20.0,29.0,71,0.00,,,0.00,373.0,meteohub,2013-03-05 20:17:00,
2013-03-05 12:22:00,50.7,41.7,29.95,SW,229,10.0,29.0,71,0.00,,,0.00,362.0,meteohub,2013-03-05 20:22:00,
2013-03-05 12:27:00,51.1,42.1,29.95,SW,221,15.0,26.0,71,0.00,,,0.00,357.0,meteohub,2013-03-05 20:27:00,
2013-03-05 12:32:00,51.1,42.1,29.95,WSW,237,7.0,23.0,71,0.00,,,0.00,360.0,meteohub,2013-03-05 20:32:00,
2013-03-05 12:37:00,51.3,41.9,29.95,South,187,12.0,23.0,70,0.00,,,0.00,401.0,meteohub,2013-03-05 20:37:00,
2013-03-05 12:42:00,51.3,41.9,29.94,SW,227,14.0,23.0,70,0.00,,,0.00,329.0,meteohub,2013-03-05 20:42:00,
2013-03-05 12:47:00,51.4,41.5,29.94,SW,236,13.0,21.0,69,0.00,,,0.00,504.0,meteohub,2013-03-05 20:47:00,
2013-03-05 12:52:00,51.6,42.1,29.94,SSW,203,8.0,26.0,70,0.00,,,0.00,390.0,meteohub,2013-03-05 20:52:00,
2013-03-05 12:56:00,51.6,42.1,29.94,WSW,237,5.0,26.0,70,0.00,,,0.00,406.0,meteohub,2013-03-05 20:56:00,
2013-03-05 13:01:00,51.4,41.9,29.93,SW,221,13.0,26.0,70,0.00,,,0.00,346.0,meteohub,2013-03-05 21:01:00,
2013-03-05 13:07:00,51.6,42.1,29.93,SSW,203,14.0,23.0,70,0.00,,,0.00,272.0,meteohub,2013-03-05 21:07:00,
2013-03-05 13:12:00,51.3,42.3,29.93,WSW,240,12.0,21.0,71,0.00,,,0.00,313.0,meteohub,2013-03-05 21:12:00,
2013-03-05 13:17:00,51.4,42.4,29.93,WSW,241,11.0,21.0,71,0.00,,,0.00,257.0,meteohub,2013-03-05 21:17:00,
2013-03-05 13:22:00,51.4,41.9,29.93,SW,219,11.0,24.0,70,0.00,,,0.00,322.0,meteohub,2013-03-05 21:22:00,
2013-03-05 13:27:00,51.4,41.9,29.92,South,173,4.0,24.0,70,0.00,,,0.00,272.0,meteohub,2013-03-05 21:27:00,
2013-03-05 13:31:00,52.2,42.6,29.92,SW,215,9.0,24.0,70,0.00,,,0.00,257.0,meteohub,2013-03-05 21:31:00,
2013-03-05 13:36:00,52.3,42.4,29.92,SSW,202,5.0,21.0,69,0.00,,,0.00,288.0,meteohub,2013-03-05 21:36:00,
2013-03-05 13:42:00,52.2,42.3,29.91,SSE,150,7.0,17.0,69,0.00,,,0.00,295.0,meteohub,2013-03-05 21:42:00,
2013-03-05 13:46:00,52.5,42.3,29.91,WSW,240,9.0,16.0,68,0.00,,,0.00,387.0,meteohub,2013-03-05 21:46:00,
2013-03-05 13:52:00,52.3,42.4,29.91,SSW,195,6.0,19.0,69,0.00,,,0.00,323.0,meteohub,2013-03-05 21:52:00,
2013-03-05 13:57:00,52.5,42.3,29.91,West,264,13.0,19.0,68,0.00,,,0.00,304.0,meteohub,2013-03-05 21:57:00,
2013-03-05 14:02:00,52.9,42.6,29.91,SSE,166,10.0,19.0,68,0.00,,,0.00,311.0,meteohub,2013-03-05 22:02:00,
2013-03-05 14:07:00,52.9,42.6,29.91,SW,225,7.0,20.0,68,0.00,,,0.00,283.0,meteohub,2013-03-05 22:07:00,
2013-03-05 14:12:00,52.5,42.3,29.91,SSE,154,7.0,20.0,68,0.00,,,0.00,374.0,meteohub,2013-03-05 22:12:00,
2013-03-05 14:17:00,52.7,42.4,29.90,WSW,239,6.0,20.0,68,0.00,,,0.00,378.0,meteohub,2013-03-05 22:17:00,
2013-03-05 14:22:00,52.5,42.3,29.90,SSW,213,15.0,19.0,68,0.00,,,0.00,338.0,meteohub,2013-03-05 22:22:00,
2013-03-05 14:27:00,53.1,42.8,29.90,SW,217,7.0,21.0,68,0.00,,,0.00,557.0,meteohub,2013-03-05 22:27:00,
2013-03-05 14:32:00,53.4,42.8,29.89,South,188,9.0,21.0,67,0.00,,,0.00,455.0,meteohub,2013-03-05 22:32:00,
2013-03-05 14:37:00,52.9,42.6,29.89,SSE,166,10.0,19.0,68,0.00,,,0.00,621.0,meteohub,2013-03-05 22:37:00,
2013-03-05 14:42:00,52.9,42.3,29.89,SSE,148,9.0,24.0,67,0.00,,,0.00,418.0,meteohub,2013-03-05 22:42:00,
2013-03-05 14:47:00,52.7,42.4,29.89,SSE,163,7.0,24.0,68,0.00,,,0.00,448.0,meteohub,2013-03-05 22:47:00,
2013-03-05 14:52:00,53.2,43.0,29.89,WSW,248,8.0,24.0,68,0.00,,,0.00,578.0,meteohub,2013-03-05 22:52:00,
2013-03-05 14:57:00,53.6,43.3,29.89,SE,140,8.0,24.0,68,0.00,,,0.00,520.0,meteohub,2013-03-05 22:57:00,
2013-03-05 15:02:00,54.0,42.8,29.89,South,187,12.0,24.0,66,0.00,,,0.00,601.0,meteohub,2013-03-05 23:02:00,
2013-03-05 15:07:00,53.4,42.8,29.89,South,182,10.0,20.0,67,0.00,,,0.00,626.0,meteohub,2013-03-05 23:07:00,
2013-03-05 15:12:00,54.3,43.2,29.88,West,281,9.0,20.0,66,0.00,,,0.00,294.0,meteohub,2013-03-05 23:12:00,
2013-03-05 15:17:00,54.3,43.2,29.88,SSW,211,4.0,20.0,66,0.00,,,0.00,559.0,meteohub,2013-03-05 23:17:00,
2013-03-05 15:22:00,54.7,43.2,29.88,South,180,4.0,17.0,65,0.00,,,0.00,540.0,meteohub,2013-03-05 23:22:00,
2013-03-05 15:27:00,54.5,43.3,29.88,South,169,7.0,17.0,66,0.00,,,0.00,216.0,meteohub,2013-03-05 23:27:00,
2013-03-05 15:32:00,54.5,43.3,29.88,SW,234,10.0,18.0,66,0.00,,,0.00,294.0,meteohub,2013-03-05 23:32:00,
2013-03-05 15:37:00,54.7,42.8,29.87,SW,219,10.0,19.0,64,0.00,,,0.00,214.0,meteohub,2013-03-05 23:37:00,
2013-03-05 15:42:00,54.3,43.2,29.87,SW,229,12.0,19.0,66,0.00,,,0.00,241.0,meteohub,2013-03-05 23:42:00,
2013-03-05 15:47:00,54.5,43.3,29.87,South,170,4.0,19.0,66,0.00,,,0.00,357.0,meteohub,2013-03-05 23:47:00,
2013-03-05 15:52:00,54.9,43.3,29.87,SSW,209,6.0,18.0,65,0.00,,,0.00,490.0,meteohub,2013-03-05 23:52:00,
2013-03-05 15:57:00,54.9,43.3,29.87,SSW,206,15.0,18.0,65,0.00,,,0.00,432.0,meteohub,2013-03-05 23:57:00,
2013-03-05 16:02:00,54.3,43.2,29.86,SW,217,11.0,23.0,66,0.00,,,0.00,258.0,meteohub,2013-03-06 00:02:00,
2013-03-05 16:07:00,54.1,43.0,29.86,SW,220,18.0,23.0,66,0.00,,,0.00,272.0,meteohub,2013-03-06 00:07:00,
2013-03-05 16:12:00,54.0,42.8,29.86,SSW,200,12.0,22.0,66,0.00,,,0.00,258.0,meteohub,2013-03-06 00:12:00,
2013-03-05 16:17:00,54.1,43.0,29.85,SW,234,10.0,27.0,66,0.00,,,0.00,171.0,meteohub,2013-03-06 00:17:00,
2013-03-05 16:22:00,53.8,43.2,29.85,South,189,9.0,27.0,67,0.00,,,0.00,250.0,meteohub,2013-03-06 00:22:00,
2013-03-05 16:27:00,53.8,43.2,29.85,SSW,207,10.0,27.0,67,0.00,,,0.00,229.0,meteohub,2013-03-06 00:27:00,
2013-03-05 16:32:00,53.4,42.8,29.85,South,184,12.0,23.0,67,0.00,,,0.00,251.0,meteohub,2013-03-06 00:32:00,
2013-03-05 16:36:00,53.4,42.8,29.84,SSW,201,8.0,20.0,67,0.00,,,0.00,206.0,meteohub,2013-03-06 00:36:00,
2013-03-05 16:42:00,53.2,43.0,29.84,WSW,247,11.0,20.0,68,0.00,,,0.00,167.0,meteohub,2013-03-06 00:42:00,
2013-03-05 16:47:00,53.2,43.0,29.84,SSW,199,9.0,20.0,68,0.00,,,0.00,244.0,meteohub,2013-03-06 00:47:00,
2013-03-05 16:52:00,53.2,43.0,29.84,West,263,8.0,19.0,68,0.00,,,0.00,227.0,meteohub,2013-03-06 00:52:00,
2013-03-05 16:57:00,53.2,43.0,29.84,SSW,208,11.0,20.0,68,0.00,,,0.00,199.0,meteohub,2013-03-06 00:57:00,
2013-03-05 17:02:00,53.2,43.0,29.84,SW,215,13.0,21.0,68,0.00,,,0.00,141.0,meteohub,2013-03-06 01:02:00,
2013-03-05 17:07:00,52.9,43.0,29.83,South,185,10.0,22.0,69,0.00,,,0.00,100.0,meteohub,2013-03-06 01:07:00,
2013-03-05 17:12:00,52.7,42.8,29.83,South,182,11.0,22.0,69,0.00,,,0.00,88.0,meteohub,2013-03-06 01:12:00,
2013-03-05 17:17:00,52.3,42.8,29.83,SW,229,14.0,22.0,70,0.00,,,0.00,76.0,meteohub,2013-03-06 01:17:00,
2013-03-05 17:22:00,52.2,42.6,29.83,SSW,209,8.0,21.0,70,0.00,,,0.00,58.0,meteohub,2013-03-06 01:22:00,
2013-03-05 17:27:00,52.0,42.4,29.83,NNW,331,8.0,21.0,70,0.00,,,0.00,53.0,meteohub,2013-03-06 01:27:00,
2013-03-05 17:32:00,51.8,42.6,29.83,South,179,7.0,33.0,71,0.00,,,0.00,54.0,meteohub,2013-03-06 01:32:00,
2013-03-05 17:37:00,51.6,42.4,29.82,SSW,200,8.0,33.0,71,0.00,,,0.00,40.0,meteohub,2013-03-06 01:37:00,
2013-03-05 17:42:00,51.6,42.4,29.82,South,184,10.0,33.0,71,0.00,,,0.00,32.0,meteohub,2013-03-06 01:42:00,
2013-03-05 17:47:00,51.8,42.6,29.82,SSW,205,7.0,21.0,71,0.00,,,0.00,16.0,meteohub,2013-03-06 01:47:00,
2013-03-05 17:52:00,51.6,42.1,29.81,SSW,211,19.0,21.0,70,0.00,,,0.00,12.0,meteohub,2013-03-06 01:52:00,
2013-03-05 17:57:00,51.6,42.1,29.81,SW,227,18.0,24.0,70,0.00,,,0.00,11.0,meteohub,2013-03-06 01:57:00,
2013-03-05 18:02:00,51.6,42.4,29.81,SW,223,14.0,24.0,71,0.00,,,0.00,11.0,meteohub,2013-03-06 02:02:00,
2013-03-05 18:07:00,51.4,42.4,29.81,SW,219,19.0,26.0,71,0.00,,,0.00,5.0,meteohub,2013-03-06 02:07:00,
2013-03-05 18:12:00,51.4,42.4,29.81,West,270,11.0,28.0,71,0.00,,,0.00,5.0,meteohub,2013-03-06 02:12:00,
2013-03-05 18:17:00,51.3,42.6,29.81,South,173,11.0,28.0,72,0.00,,,0.00,0.0,meteohub,2013-03-06 02:17:00,
2013-03-05 18:22:00,51.3,42.6,29.81,SSW,206,21.0,28.0,72,0.00,,,0.00,0.0,meteohub,2013-03-06 02:22:00,
2013-03-05 18:27:00,51.1,42.4,29.81,SSE,165,20.0,26.0,72,0.00,,,0.00,0.0,meteohub,2013-03-06 02:27:00,
2013-03-05 18:32:00,51.1,42.4,29.81,SW,217,13.0,27.0,72,0.00,,,0.00,0.0,meteohub,2013-03-06 02:32:00,
2013-03-05 18:37:00,50.9,42.6,29.81,South,191,10.0,27.0,73,0.00,,,0.00,0.0,meteohub,2013-03-06 02:37:00,
2013-03-05 18:42:00,50.7,42.4,29.82,SW,220,15.0,27.0,73,0.00,,,0.00,0.0,meteohub,2013-03-06 02:42:00,
2013-03-05 18:47:00,50.5,42.6,29.82,South,170,16.0,28.0,74,0.00,,,0.00,0.0,meteohub,2013-03-06 02:47:00,
2013-03-05 18:52:00,50.5,42.6,29.82,SSE,167,9.0,29.0,74,0.00,,,0.00,0.0,meteohub,2013-03-06 02:52:00,
2013-03-05 18:57:00,50.5,42.6,29.82,SSW,212,16.0,30.0,74,0.00,,,0.00,0.0,meteohub,2013-03-06 02:57:00,
2013-03-05 19:02:00,50.5,43.0,29.82,SSW,202,16.0,30.0,75,0.00,,,0.00,0.0,meteohub,2013-03-06 03:02:00,
2013-03-05 19:07:00,50.5,42.6,29.81,South,188,14.0,28.0,74,0.00,,,0.00,0.0,meteohub,2013-03-06 03:07:00,
2013-03-05 19:12:00,50.5,42.6,29.81,SSE,163,12.0,29.0,74,0.00,,,0.00,0.0,meteohub,2013-03-06 03:12:00,
2013-03-05 19:17:00,50.7,42.8,29.81,South,178,14.0,29.0,74,0.00,,,0.00,0.0,meteohub,2013-03-06 03:17:00,
2013-03-05 19:21:00,50.9,43.0,29.81,SSW,207,12.0,29.0,74,0.00,,,0.00,0.0,meteohub,2013-03-06 03:21:00,
2013-03-05 19:26:00,51.1,43.2,29.81,SSE,164,18.0,29.0,74,0.00,,,0.00,0.0,meteohub,2013-03-06 03:26:00,
2013-03-05 19:32:00,51.1,43.2,29.80,SSW,209,13.0,29.0,74,0.00,,,0.00,0.0,meteohub,2013-03-06 03:32:00,
2013-03-05 19:37:00,51.1,43.2,29.80,South,176,15.0,29.0,74,0.00,,,0.00,0.0,meteohub,2013-03-06 03:37:00,
2013-03-05 19:42:00,51.1,43.2,29.80,SSW,203,14.0,35.0,74,0.00,,,0.00,0.0,meteohub,2013-03-06 03:42:00,
2013-03-05 19:47:00,51.1,43.2,29.79,SSW,210,16.0,35.0,74,0.00,,,0.00,0.0,meteohub,2013-03-06 03:47:00,
2013-03-05 19:52:00,51.1,43.2,29.79,South,190,11.0,35.0,74,0.00,,,0.00,0.0,meteohub,2013-03-06 03:52:00,
2013-03-05 19:57:00,51.1,43.2,29.79,SSW,207,20.0,23.0,74,0.00,,,0.00,0.0,meteohub,2013-03-06 03:57:00,
2013-03-05 20:02:00,51.3,43.3,29.79,South,175,13.0,22.0,74,0.00,,,0.00,0.0,meteohub,2013-03-06 04:02:00,
2013-03-05 20:07:00,51.1,43.2,29.79,SSE,159,13.0,22.0,74,0.00,,,0.00,0.0,meteohub,2013-03-06 04:07:00,
2013-03-05 20:12:00,51.1,43.2,29.79,SE,145,7.0,22.0,74,0.00,,,0.00,0.0,meteohub,2013-03-06 04:12:00,
2013-03-05 20:17:00,50.9,43.0,29.79,SW,234,14.0,19.0,74,0.00,,,0.00,0.0,meteohub,2013-03-06 04:17:00,
2013-03-05 20:22:00,51.1,43.2,29.79,South,177,10.0,17.0,74,0.00,,,0.00,0.0,meteohub,2013-03-06 04:22:00,
2013-03-05 20:27:00,51.1,43.5,29.80,SSW,198,11.0,18.0,75,0.00,,,0.00,0.0,meteohub,2013-03-06 04:27:00,
2013-03-05 20:32:00,51.1,43.5,29.79,South,173,6.0,18.0,75,0.00,,,0.00,0.0,meteohub,2013-03-06 04:32:00,
2013-03-05 20:37:00,51.1,43.7,29.79,SE,142,12.0,18.0,76,0.00,,,0.00,0.0,meteohub,2013-03-06 04:37:00,
2013-03-05 20:42:00,51.1,43.7,29.79,West,269,12.0,20.0,76,0.00,,,0.00,0.0,meteohub,2013-03-06 04:42:00,
2013-03-05 20:47:00,51.1,44.4,29.79,SSE,158,5.0,25.0,78,0.00,,,0.00,0.0,meteohub,2013-03-06 04:47:00,
2013-03-05 20:52:00,50.7,44.4,29.79,SSW,207,18.0,25.0,79,0.00,,,0.00,0.0,meteohub,2013-03-06 04:52:00,
2013-03-05 20:57:00,50.5,44.6,29.79,South,179,11.0,26.0,80,0.00,,,0.00,0.0,meteohub,2013-03-06 04:57:00,
2013-03-05 21:00:00,50.4,44.4,29.79,SSW,210,21.0,26.0,80,0.00,,,0.00,0.0,meteohub,2013-03-06 05:00:00,
2013-03-05 21:05:00,50.2,44.6,29.78,SE,140,11.0,32.0,81,0.01,,,0.01,0.0,meteohub,2013-03-06 05:05:00,
2013-03-05 21:10:00,49.8,44.8,29.79,SW,220,17.0,32.0,83,0.01,,,0.01,0.0,meteohub,2013-03-06 05:10:00,
2013-03-05 21:15:00,49.6,44.8,29.79,SE,140,7.0,32.0,83,0.01,,,0.01,0.0,meteohub,2013-03-06 05:15:00,
2013-03-05 21:20:00,49.6,45.0,29.79,SE,140,10.0,27.0,84,0.02,,,0.02,0.0,meteohub,2013-03-06 05:20:00,
2013-03-05 21:25:00,49.5,44.8,29.79,South,189,15.0,31.0,84,0.02,,,0.02,0.0,meteohub,2013-03-06 05:25:00,
2013-03-05 21:30:00,49.5,45.1,29.79,SE,142,13.0,31.0,85,0.02,,,0.02,0.0,meteohub,2013-03-06 05:30:00,
2013-03-05 21:35:00,49.3,45.0,29.79,SW,235,15.0,31.0,85,0.03,,,0.03,0.0,meteohub,2013-03-06 05:35:00,
2013-03-05 21:40:00,49.3,45.3,29.79,South,180,16.0,36.0,86,0.04,,,0.04,0.0,meteohub,2013-03-06 05:40:00,
2013-03-05 21:45:00,49.1,45.1,29.79,SSE,157,19.0,36.0,86,0.05,,,0.05,0.0,meteohub,2013-03-06 05:45:00,
2013-03-05 21:50:00,48.9,45.1,29.78,SSE,159,14.0,33.0,87,0.05,,,0.05,0.0,meteohub,2013-03-06 05:50:00,
2013-03-05 21:55:00,49.3,45.3,29.78,SSE,152,7.0,33.0,86,0.06,,,0.06,0.0,meteohub,2013-03-06 05:55:00,
2013-03-05 22:00:00,49.3,45.3,29.78,South,191,11.0,33.0,86,0.06,,,0.06,0.0,meteohub,2013-03-06 06:00:00,
2013-03-05 22:05:00,49.3,45.5,29.78,SSE,165,10.0,33.0,87,0.05,,,0.06,0.0,meteohub,2013-03-06 06:05:00,
2013-03-05 22:10:00,49.5,45.5,29.78,SSW,202,7.0,28.0,86,0.05,,,0.06,0.0,meteohub,2013-03-06 06:10:00,
2013-03-05 22:15:00,49.5,45.5,29.78,SSE,148,15.0,28.0,86,0.05,,,0.06,0.0,meteohub,2013-03-06 06:15:00,
2013-03-05 22:20:00,49.6,45.7,29.79,SSE,157,8.0,28.0,86,0.04,,,0.06,0.0,meteohub,2013-03-06 06:20:00,
2013-03-05 22:25:00,49.6,45.7,29.78,SSW,195,25.0,27.0,86,0.04,,,0.06,0.0,meteohub,2013-03-06 06:25:00,
2013-03-05 22:30:00,49.6,45.7,29.78,SE,146,12.0,27.0,86,0.03,,,0.06,0.0,meteohub,2013-03-06 06:30:00,
2013-03-05 22:35:00,49.5,45.5,29.78,SSE,167,22.0,25.0,86,0.02,,,0.06,0.0,meteohub,2013-03-06 06:35:00,
2013-03-05 22:41:00,49.5,45.5,29.78,South,175,7.0,25.0,86,0.02,,,0.06,0.0,meteohub,2013-03-06 06:41:00,
2013-03-05 22:45:00,49.5,45.5,29.78,SW,221,10.0,25.0,86,0.01,,,0.06,0.0,meteohub,2013-03-06 06:45:00,
2013-03-05 22:51:00,49.5,45.5,29.79,SSW,206,14.0,25.0,86,0.01,,,0.06,0.0,meteohub,2013-03-06 06:51:00,
2013-03-05 22:56:00,49.5,45.5,29.78,South,172,14.0,25.0,86,0.00,,,0.06,0.0,meteohub,2013-03-06 06:56:00,
2013-03-05 23:01:00,49.5,45.5,29.78,SSW,203,18.0,25.0,86,0.00,,,0.06,0.0,meteohub,2013-03-06 07:01:00,
2013-03-05 23:06:00,49.6,45.3,29.79,SSE,153,17.0,24.0,85,0.00,,,0.06,0.0,meteohub,2013-03-06 07:06:00,
2013-03-05 23:11:00,49.6,45.7,29.79,SSW,202,14.0,33.0,86,0.00,,,0.06,0.0,meteohub,2013-03-06 07:11:00,
2013-03-05 23:16:00,49.5,45.5,29.78,SW,225,12.0,33.0,86,0.00,,,0.06,0.0,meteohub,2013-03-06 07:16:00,
2013-03-05 23:21:00,49.3,45.9,29.78,SSW,203,11.0,31.0,88,0.00,,,0.06,0.0,meteohub,2013-03-06 07:21:00,
2013-03-05 23:26:00,49.1,45.7,29.78,SW,214,15.0,33.0,88,0.01,,,0.07,0.0,meteohub,2013-03-06 07:26:00,
2013-03-05 23:31:00,48.9,45.9,29.79,SSW,197,23.0,33.0,89,0.01,,,0.07,0.0,meteohub,2013-03-06 07:31:00,
2013-03-05 23:36:00,48.9,46.0,29.78,WNW,291,7.0,37.0,90,0.02,,,0.08,0.0,meteohub,2013-03-06 07:36:00,
2013-03-05 23:41:00,48.9,46.0,29.78,SSW,212,9.0,37.0,90,0.03,,,0.09,0.0,meteohub,2013-03-06 07:41:00,
2013-03-05 23:46:00,48.7,45.9,29.79,SW,227,15.0,37.0,90,0.03,,,0.09,0.0,meteohub,2013-03-06 07:46:00,
2013-03-05 23:51:00,48.7,45.9,29.78,SE,130,14.0,34.0,90,0.03,,,0.09,0.0,meteohub,2013-03-06 07:51:00,
2013-03-05 23:56:00,48.7,46.2,29.79,SSW,213,17.0,34.0,91,0.03,,,0.09,0.0,meteohub,2013-03-06 07:56:00,